UmKA 1 (RS40S)
1 57172U 23091G   26027.80286556  .00009544  00000-0  45916-3 0  9994
2 57172  97.5272  87.0743 0011934 246.5600 113.4380 15.18939049142686
CubeBel-2 (EU11S)
1 57175U 23091K   26027.79159251  .00018600  00000-0  73548-3 0  9991
2 57175  97.5267  89.9857 0009455 247.5161 112.5076 15.25488092142876
RS-38S
1 57189U 23091Z   26027.87381769  .00025222  00000-0  83864-3 0  9996
2 57189  97.5291  94.9230 0007538 203.1143 156.9759 15.31136338143182
SONATE-2
1 59112U 24043Q   26027.33397182  .00043690  00000-0  82923-3 0  9993
2 59112  97.5343 170.3941 0008384   3.6796 356.4514 15.48141514106021
MO-122
1 60209U 24125G   26027.55684488  .00048449  00000-0  86226-3 0  9992
2 60209  97.2500 243.0649 0014411  21.2303 338.9544 15.49882323 87693
GRBBeta
1 60237U 24128C   26027.26294656  .00007744  00000-0  53554-3 0  9999
2 60237  61.9918 350.2376 0054496 105.4847 255.2272 15.05284291 85046
Curium One
1 60242U 24128H   26027.83844186  .00014649  00000-0  88021-3 0  9996
2 60242  61.9809 341.9513 0054513 102.2474 258.4733 15.09884999 85246
ROBUSTA-3A
1 60243U 24128J   26027.59799646  .00014128  00000-0  86603-3 0  9996
2 60243  61.9882 344.5460 0054672  99.8243 260.9030 15.09180569 85182
CatSat
1 60246U 24125J   26027.54050880  .00055560  00000-0  11657-2 0  9992
2 60246  97.2268 239.5472 0030543 343.3891  16.6355 15.44689171 85580
HYPERVIEW-1G (RS66S)
1 61772U 24199AP  26027.64214780  .00062560  00000-0  10082-2 0  9999
2 61772  97.3163 262.7911 0011653  73.8128 286.4406 15.52657351112720
AO-123
1 61781U 24199AY  26027.64020414  .00014781  00000-0  46210-3 0  9993
2 61781  97.3218 257.6141 0016062  91.2382 269.0700 15.33123592112373
HADES-R (SO-124)
1 62690U 25009CK  26026.18254824  .01001461  43203-3  32071-2 0  9992
2 62690  97.3706 116.2664 0007330 295.6648  64.3868 15.91046623 57752
HYDRA-T
1 62692U 25009CM  26026.71469105  .03125299  16016-1  35684-2 0  9994
2 62692  97.3655 117.3849 0009581 301.7131  58.3219 16.11985437 57874
JINJUSat 1B
1 63210U 25052A   26027.24698376  .00026121  00000-0  94161-3 0  9994
2 63210  97.4172 284.1706 0002210 195.4555 164.6618 15.28519526 48537
NUSHSAT 1
1 63211U 25052B   26027.66445894  .00028821  00000-0  99480-3 0  9994
2 63211  97.4152 284.7798 0001935 197.7557 162.3616 15.29919497 48617
TEVEL2-4
1 63213U 25052D   26027.68760132  .00027183  00000-0  96259-3 0  9994
2 63213  97.4076 284.2547 0000753 216.1153 144.0037 15.29097670 48609
TEVEL2-5
1 63214U 25052E   26027.43384509  .00028751  00000-0  10212-2 0  9994
2 63214  97.4077 283.9826 0000785 218.0587 142.0598 15.28986409 48565
TEVEL2-6
1 63215U 25052F   26027.44252330  .00029286  00000-0  10414-2 0  9990
2 63215  97.4079 283.9781 0000825 222.5303 137.5873 15.28943267 48569
TEVEL2-1
1 63217U 25052H   26027.16826734  .00027026  00000-0  97308-3 0  9994
2 63217  97.4051 283.4760 0000840 280.7677  79.3468 15.28553463 48513
TEVEL2-3
1 63218U 25052J   26027.49402371  .00028196  00000-0  10134-2 0  9998
2 63218  97.4053 283.8088 0000831 281.1284  78.9862 15.28601579 48562
TEVEL2-2
1 63219U 25052K   26027.49628808  .00028008  00000-0  10076-2 0  9991
2 63219  97.4052 283.8027 0000758 281.8915  78.2239 15.28574648 48568
TEVEL2-9
1 63237U 25052AD  26027.44011834  .00027280  00000-0  10300-2 0  9992
2 63237  97.4117 283.3853 0004897 290.3522  69.7191 15.26973483 48514
TEVEL2-7
1 63238U 25052AE  26027.26240507  .00026698  00000-0  10141-2 0  9999
2 63238  97.4118 283.1727 0005091 291.3844  68.6851 15.26778567 48482
TEVEL2-8
1 63239U 25052AF  26027.46541562  .00026939  00000-0  10237-2 0  9991
2 63239  97.4114 283.3570 0005086 292.3294  67.7405 15.26763132 48512
HYDRA-W
1 63490U 25052BL  26027.22474324  .00150087  00000-0  26152-2 0  9990
2 63490  97.4018 286.9142 0002787 273.5039  86.5893 15.50193095 48748
HADES-ICM (SO-125)
1 63492U 25052BN  26027.22796990  .00126897  00000-0  24807-2 0  9995
2 63492  97.4022 286.4807 0003781 282.8419  77.2408 15.46968471 48717
Dragonfly
1 65729U 98067XH  26027.65768752  .01478975  15247-2  15289-2 0  9991
2 65729  51.6087 256.2466 0007555 218.0139 142.0343 16.10251092 20449
RSP-03
1 65732U 98067XL  26027.69313108  .00423395  00000-0  14093-2 0  9996
2 65732  51.6204 259.5751 0005449 183.7564 176.3400 15.88612119 20413
GHS-01
1 65733U 98067XM  26020.92375749  .09795873  12158-4  14287-2 0  9993
2 65733  51.6117 289.2886 0004779 208.5099 151.5664 16.33783644 19418
BOTAN
1 65942U 98067XP  26026.68927312  .00263485  00000-0  15443-2 0  9997
2 65942  51.6210 270.1730 0005275 178.3633 181.7385 15.76971767 16920
CEVROSAT1
1 66309U 25248S   26027.72281112  .00007926  00000-0  38741-3 0  9996
2 66309  45.4029 153.9453 0003421 314.5971  45.4636 15.18773460 13149
SPIRONE
1 66657U 25274H   26027.79958228  .00004665  00000-0  45586-3 0  9999
2 66657  97.7410 319.2316 0013637 117.6569 242.6036 14.92784904  9279
K-HERO
1 66660U 25274L   26027.57779547  .00003540  00000-0  34290-3 0  9995
2 66660  97.7422 319.0662 0015439 122.6123 237.6589 14.93266255  9241
SNUGLITE-III DURI
1 66661U 25274M   26027.30434480  .00003698  00000-0  35689-3 0  9998
2 66661  97.7424 318.8073 0016105 124.4188 235.8556 14.93377679  9202
SilverSat
1 66909U 98067XV  26027.66481558  .00127884  00000-0  15297-2 0  9996
2 66909  51.6289 272.9632 0003364 145.3172 214.8041 15.60055974  8766
SAKHACUBE-CHOLBON
1 67290U 25313AU  26027.79967054  .00016004  00000-0  70498-3 0  9994
2 67290  97.4088 104.7982 0010962 125.9134 234.3121 15.21852757  4605
QMR-KWT
1 67291U 25313AV  26027.79821258  .00021660  00000-0  94683-3 0  9996
2 67291  97.4089 104.8002 0010787 125.8976 234.3263 15.22051919  4608
IO-86
1 40931U          25360.30710720  .00000000  00000-0  12800-3 0    00
2 40931   6.0006 332.5373 0012733 338.8432   8.1437 14.79075515    01
